User: anonymous   Login
Location: Unspecified
(0.0000°N, 0.0000°E)
Time: 23:36:58
(UTC+00:00)
Language:

USA-170 - Orbit

View from above orbital plane
View from above orbital plane
View from above satellite
View from above satellite

Ground track
Ground track

The orbit data is extracted from the following two-line orbital elements,

1 27875U 03040A   17153.61364356 0.00000000  00000-0  00000-0 0    00
2 27875   3.7061  69.6169 0005508  47.5330 312.5367  1.00270000    02
Epoch (UTC): 02 June 2017 14:43:38
Eccentricity: 0.0005508
inclination: 3.7061°
perigee height: 35763 km
apogee height: 35810 km
right ascension of ascending node: 69.6169°
argument of perigee: 47.5330°
revolutions per day: 1.00270000
mean anomaly at epoch: 312.5367°
orbit number at epoch: 0

The dashed part of the orbit path shows where the satellite is in the earth's shadow,  

DLR